This is the latest recevied weather packets stored in our database for station/object KE4AMH. If no packets are shown the sender has not sent any weather packets the latest 10 day(s).
| Time | Temp. | Humidity | Pressure | Rain* | Wind** | Luminosity | Snow |
|---|---|---|---|---|---|---|---|
| 1778105246 | 26.67° C | 65% | 1011 hPa | 0 mm | - | 76 W/m² | - |
| 1778104940 | 26.67° C | 66% | 1011 hPa | 0 mm | - | 78 W/m² | - |
| 1778104638 | 26.67° C | 66% | 1011 hPa | 0 mm | - | 76 W/m² | - |
| 1778104333 | 27.22° C | 67% | 1011.1 hPa | 0 mm | - | 88 W/m² | - |
| 1778104030 | 26.67° C | 68% | 1011.3 hPa | 0 mm | - | 79 W/m² | - |
| 1778103727 | 27.22° C | 66% | 1011.5 hPa | 0 mm | - | 76 W/m² | - |
| 1778103425 | 26.67° C | 67% | 1011.7 hPa | 0 mm | - | 97 W/m² | - |
| 1778103123 | 26.67° C | 66% | 1011.4 hPa | 0 mm | - | 94 W/m² | - |
| 1778102820 | 27.22° C | 64% | 1011.4 hPa | 0 mm | - | 91 W/m² | - |
| 1778102515 | 27.22° C | 65% | 1011.8 hPa | 0 mm | - | 89 W/m² | - |
| 1778102210 | 27.22° C | 64% | 1011.7 hPa | 0 mm | - | 87 W/m² | - |
| 1778101907 | 27.22° C | 66% | 1011.9 hPa | 0 mm | - | 146 W/m² | - |
| 1778101604 | 26.67° C | 64% | 1012.1 hPa | 0 mm | - | 120 W/m² | - |
| 1778101301 | 27.22° C | 65% | 1012.1 hPa | 0 mm | - | 109 W/m² | - |
| 1778100998 | 27.22° C | 65% | 1012.4 hPa | 0 mm | - | 113 W/m² | - |
| 1778100692 | 26.67° C | 66% | 1012.7 hPa | 0 mm | - | 144 W/m² | - |
| 1778100391 | 26.67° C | 68% | 1012.5 hPa | 0 mm | - | 204 W/m² | - |
| 1778100087 | 26.67° C | 68% | 1012.7 hPa | 0 mm | - | 127 W/m² | - |
| 1778099786 | 26.67° C | 68% | 1012.6 hPa | 0 mm | - | 148 W/m² | - |
| 1778099482 | 26.11° C | 69% | 1012.6 hPa | 0 mm | - | 119 W/m² | - |
| 1778099180 | 26.11° C | 68% | 1012.8 hPa | 0 mm | - | 137 W/m² | - |
| 1778098876 | 26.11° C | 67% | 1012.7 hPa | 0 mm | - | 157 W/m² | - |
| 1778098573 | 26.67° C | 67% | 1012.7 hPa | 0 mm | - | 166 W/m² | - |
| 1778098270 | 26.67° C | 69% | 1012.9 hPa | 0 mm | - | 170 W/m² | - |
| 1778097966 | 26.11° C | 68% | 1013.1 hPa | 0 mm | - | 212 W/m² | - |
* Rain latest hour (hover to see other rain measurements)
** Current wind speed in m/s (hover to see current wind gust speed)